CZ-6A DEB

Satellite information

Favourite Embed

Satellite Type and Status

DEBRISIN ORBIT

Key statistics

Satellite CZ-6A DEB at a glance.

Uptime

1079

Days in orbit

Revolutions

≈ 14.4

Per day

Orbit

SSO

Sun Synchronous Orbit

Inclination

98.8

Latest

Satellite identification and parameters

Extended collection of information and parameters for CZ-6A DEB.

Object identification

Identified? True

Debris? True

Object name: CZ-6A DEB

International designator: 2022-151AGU

Object number (NORAD): 56668

Object ID (CCSDS): 56668

Country: PEOPLES REPUBLIC OF CHINA (PRC)

Current information (Y/N): Y

RCS size: SMALL

Orbital parameters

Period: 100.02 minutes

Inclination: 98.8478 deg

SMA: 7137.605 km

Apoapsis: 783.14 km

Periapsis: 735.799 km

RAAN: 345.0197 deg

Eccentricy: 0.00331631

Argument of periapsis: 1.6976 deg

Mean anomaly: 358.4317 deg

Mean motion: 14.39706664 rev/day

Mean motion (dot): 0.00004895 rev/day2

B* drag term: 0.0015673737 1/REarth

Two-line elements (TLE)

Creation date: Oct. 23, 2025, 6:40 p.m.

Reference frame: TEME

Reference center: EARTH

Epoch: Oct. 23, 2025, 2:02 a.m. UTC

TLE line 0: 0 CZ-6A DEB

TLE line 1: 1 56668U 22151AGU 25296.08493987 .00004895 00000-0 15674-2 0 9995

TLE line 2: 2 56668 98.8478 345.0197 0033163 1.6976 358.4317 14.39706664146290

Live tracking on map

Real-time ground track for satellite CZ-6A DEB.

In-orbit conjunctions

A list of the most updated potential collisions computed for object CZ-6A DEB.

Target Orbit TCA Probability of collision Miss distance Type
COSMOS 1302 LEO 2025-08-17 21:22:34 0.0001778958 173.0 (m) PAYLOAD

Associated space launch

Chinese satellite reported for atmospheric/ocean/environmental/spatial parameter research purposes, details TBD.

CZ-6A DEB was lifted into orbit during the mission ‘Long March 6A | Yunhai 3’, on board a Long March 6A space rocket.

The launch took place on Nov. 11, 2022, 10:52 p.m. from Launch Complex 9A.

For more information about the launch, click the button.

Launch to space Long March 6A | Yunhai 3
Long March 6A | Yunhai 3

Agency: N/A

Status: Launch Successful

Launch date: Nov. 11, 2022, 10:52 p.m. UTC

Rocket: Long March 6A

Launch pad: Launch Complex 9A

Location: Taiyuan Satellite Launch Center, People's Republic of China

...

Latest news about this satellite

There are no fresh news available about this satellite. Check back as we update our databases every day.


Newsletter sign-up

Weekly statistics, charts and insights to help you stay on top of the space industry.